Dewpoint
60 59 57 56 55 54 53 52 51 49 48 48 47 46 46 46 46 47 47 47 48 50
47 53 52 51 51 52 51 49 48 46 46 45 45 44 44 44 44 44 45 47 48 50
46 47 47 47 47 47 46 45 45 44 43 43 42 42 42 42 42 43 44 45 46 47
47 47 46 46 45 44 43 43 43 42 41 41 41 41 40 40 40 41 41 42 43 45
45 45 45 44 43 42 42 41 41 40 40 40 40 40 39 39 40 40 40 40 42 43
43 43 43 42 41 41 40 40 39 39 39 39 39 38 38 38 39 39 39 39 39 40
42 42 41 40 40 39 39 39 39 39 39 38 38 38 38 38 38 38 38 38 38 38
41 41 40 39 39 38 38 38 38 38 38 38 37 37 37 37 37 38 39 38 38 38
41 40 39 39 38 38 37 37 37 37 37 37 37 38 39 39 38 38 38 37 38 38
40 39 39 38 38 37 37 37 37 37 37 36 36 38 39 39 39 38 37 37 36 33
40 39 38 38 37 37 37 37 37 37 37 36 36 38 39 39 37 36 36 35 33 31
40 39 38 37 37 37 37 36 36 37 37 37 36 38 39 38 35 35 34 33 31 27
40 39 38 37 37 36 36 36 36 36 37 37 37 37 38 38 33 32 31 27 25 29
40 39 38 37 37 36 36 36 36 36 36 36 37 36 37 38 30 29 27 25 23 24
Wind_Speed
6 9 11 13 12 15 11 7 8 6 3 5 5 4 3 3 3 3 4 8 9 9
5 7 7 5 4 8 9 9 11 9 5 3 4 3 1 3 6 5 5 7 7 7
3 6 9 11 11 9 8 7 9 11 10 6 2 1 2 4 7 7 7 7 8 7
7 7 8 10 10 13 11 8 5 5 3 5 2 1 2 5 7 8 9 8 8 9
9 9 10 10 9 8 9 7 5 4 3 2 2 1 2 6 7 8 10 10 8 8
9 8 9 9 9 8 8 6 5 4 3 2 1 0 3 4 6 8 6 5 5 7
11 10 10 9 8 8 6 6 5 2 2 2 2 1 2 3 5 6 5 3 4 7
10 9 9 10 9 7 6 4 4 4 3 2 2 5 6 6 6 8 9 6 4 5
12 11 12 11 10 8 6 5 4 3 3 5 5 6 7 8 9 7 8 8 3 1
14 14 13 11 10 8 7 5 4 4 4 6 6 7 7 7 6 6 6 6 5 3
15 15 13 13 12 10 8 9 7 6 5 6 6 7 7 4 3 5 5 6 6 5
17 16 15 16 15 12 10 9 8 5 5 7 9 9 8 6 4 6 6 5 5 5
15 16 18 16 15 10 9 10 8 8 8 9 10 10 11 9 6 8 7 6 6 7
13 15 15 13 11 12 12 11 10 10 9 10 10 11 13 12 9 11 9 9 8 7
Wind_Direction
229 230 220 202 190 185 186 168 158 172 124 89 81 76 23 330 300 270 268 276 269 269
213 215 214 194 177 189 161 148 143 127 107 94 101 97 41 301 291 301 288 272 274 266
214 179 159 150 150 141 129 142 158 145 147 146 102 52 53 308 299 298 293 289 290 279
162 145 130 137 137 136 134 140 141 115 146 124 138 26 357 300 299 300 295 294 288 277
153 145 143 141 137 134 132 132 134 134 150 115 84 15 317 301 306 299 293 295 290 279
161 157 154 148 138 134 138 138 142 166 166 130 118 27 350 330 311 301 298 297 305 302
178 175 168 155 148 145 145 152 162 157 140 141 150 258 281 307 317 296 275 287 337 312
185 173 164 161 154 146 146 151 151 141 148 172 235 254 258 260 249 265 268 278 292 285
185 176 176 170 167 163 156 149 156 182 219 239 248 263 259 273 273 261 255 263 242 184
189 188 184 175 171 179 183 175 188 209 233 250 265 266 270 277 268 252 243 239 203 190
197 194 183 180 190 191 187 195 200 212 229 253 272 272 263 249 251 244 216 209 210 215
202 199 193 196 196 195 194 201 206 206 229 246 259 258 238 235 227 231 216 212 215 219
202 203 205 203 198 193 198 210 209 230 222 239 253 251 247 228 214 229 218 222 234 227
200 208 209 201 191 197 202 202 209 221 232 239 240 240 240 236 207 225 225 231 236 233